Wind_Speed
68 70 74 77 82 85 88 89 90 90 89 88 87 86 85 86 88 89 89 88 89 90 93 96 97 97 97 96 98 99 100 99 88 72 61 54 51 53 55 57 59 58
69 73 77 81 84 87 90 91 91 90 89 87 86 86 86 87 89 88 88 88 88 90 94 96 97 97 97 97 99 101 101 95 79 63 56 52 51 54 55 56 57 55
72 77 80 84 86 89 91 92 92 91 88 86 86 86 87 89 89 88 88 88 89 91 94 96 96 96 97 99 101 102 99 88 69 57 53 51 52 54 55 56 54 52
76 80 83 86 88 90 91 92 91 89 87 86 85 87 89 89 88 88 88 89 91 93 95 96 96 97 97 100 102 101 94 79 61 54 52 51 52 54 54 55 53 50
79 82 85 87 89 91 92 92 90 88 86 85 86 88 90 89 88 88 88 89 92 95 96 96 96 97 98 101 102 98 86 70 56 53 52 51 51 53 54 54 51 49
81 84 86 88 90 91 92 91 89 87 85 85 87 89 90 89 88 89 89 91 93 96 96 96 96 98 100 102 100 92 77 62 54 53 52 50 51 52 53 51 48 48
83 85 87 89 90 91 90 89 87 86 85 86 88 90 90 89 89 90 91 92 95 96 96 96 97 99 102 102 96 83 68 57 53 52 51 50 51 52 50 48 46 47
84 85 87 89 89 89 88 87 86 85 86 88 90 90 89 89 90 90 92 94 96 96 96 97 98 101 103 101 90 74 60 54 53 52 50 50 51 51 47 45 44 45
84 86 87 87 87 87 87 86 86 85 87 89 90 89 88 90 91 92 94 96 97 97 97 98 99 102 103 97 82 66 55 52 51 50 49 49 51 49 44 43 43 45
84 85 86 86 86 86 86 86 86 86 89 90 90 89 89 91 92 94 96 97 98 97 98 100 102 103 101 90 73 59 53 50 49 47 48 50 51 47 43 42 43 45
84 84 84 84 85 85 85 85 85 87 90 90 89 89 90 91 93 95 97 98 98 98 99 101 104 103 97 81 63 54 51 48 46 46 48 51 50 45 42 42 44 46
83 83 83 83 84 84 84 84 86 89 90 89 89 89 90 92 94 97 98 99 99 100 101 103 104 100 90 72 57 52 49 46 44 46 49 51 48 43 42 44 46 46
81 82 82 82 83 83 83 84 86 89 89 89 89 90 91 93 95 98 99 100 100 101 103 105 103 95 81 63 52 50 47 44 44 47 50 50 46 42 43 45 46 46
80 81 81 81 82 82 82 84 88 89 89 89 89 90 92 94 97 99 99 100 101 103 105 105 99 88 72 57 49 47 44 42 44 48 50 48 44 42 44 45 44 43
80 80 80 81 81 81 82 85 88 89 88 89 90 90 92 95 97 99 100 101 103 105 106 102 92 79 64 53 49 46 43 42 45 48 49 45 42 43 43 42 40 42
79 79 79 80 80 80 82 86 89 89 89 89 90 91 93 96 98 100 101 103 104 106 104 95 83 69 58 52 49 45 42 42 45 48 48 43 41 41 39 37 37 41
77 78 79 79 79 80 83 87 88 89 89 89 90 91 94 96 98 100 102 104 105 105 98 85 71 60 54 50 48 44 41 42 45 47 45 41 40 37 34 32 35 43
76 77 78 78 78 80 84 87 88 89 89 89 90 92 94 96 98 100 103 104 105 101 91 75 61 54 51 48 45 42 41 43 45 46 42 40 37 31 28 30 37 44
76 76 77 77 78 81 84 87 88 88 89 89 90 92 95 96 98 101 103 104 102 95 80 64 54 51 48 44 41 40 41 43 45 44 40 37 31 25 26 31 39 44
75 76 76 77 78 81 84 86 87 88 89 89 91 93 95 96 98 101 103 103 98 87 69 54 50 50 45 40 38 39 41 44 45 41 37 32 25 23 28 34 39 43
74 75 75 76 78 81 84 85 87 88 89 89 91 93 95 97 99 101 102 100 93 78 59 49 48 47 41 36 36 38 41 44 43 38 33 26 21 25 31 35 39 41
74 74 75 76 78 81 83 84 86 88 88 89 91 93 96 98 100 102 100 96 86 68 52 46 47 44 37 34 35 37 41 43 40 34 29 21 22 28 32 35 37 38
73 73 74 76 78 80 82 83 86 88 88 89 91 93 95 98 100 100 96 90 79 61 46 44 45 41 34 33 34 37 40 40 36 31 24 19 25 30 33 34 35 34
72 72 73 75 78 80 81 83 85 87 88 90 91 93 95 98 99 97 90 81 71 56 44 42 42 37 32 32 33 37 39 36 32 27 18 20 27 30 32 33 32 31
71 72 73 75 77 79 80 82 84 86 88 89 91 93 96 97 97 93 82 70 63 53 43 41 39 33 30 31 33 36 37 32 28 22 15 22 28 30 31 31 29 28
71 72 73 75 76 77 80 82 84 86 87 89 91 93 96 96 95 88 73 61 57 52 43 41 37 30 28 30 32 35 34 28 24 18 15 24 27 29 30 28 27 26
Wind_Direction
306 306 306 306 305 304 304 304 304 304 305 305 305 306 306 307 309 309 309 309 310 310 310 310 310 310 310 310 310 310 311 311 307 298 288 279 272 270 270 273 275 272
306 306 306 306 305 304 304 305 305 306 306 306 306 307 308 309 310 310 310 311 311 311 311 311 311 311 311 311 311 312 312 311 304 292 283 278 274 272 273 276 277 269
306 306 306 305 305 305 305 306 307 307 307 307 307 308 309 311 311 312 312 312 312 312 312 312 312 312 312 312 312 313 312 309 300 287 281 279 276 274 276 279 276 264
306 305 305 305 305 305 306 307 307 307 307 308 308 309 311 312 313 313 313 313 313 313 313 313 313 313 313 313 313 313 312 306 295 286 282 281 278 277 280 281 274 261
305 305 305 305 305 306 306 307 307 307 308 308 309 311 312 313 314 314 314 314 314 314 314 314 314 313 313 314 314 313 309 302 292 286 285 282 279 281 283 280 270 258
305 305 305 305 306 306 307 307 307 308 308 309 311 312 313 314 315 315 315 315 315 315 315 315 314 314 314 315 315 312 306 297 291 288 287 283 281 284 285 278 266 256
305 305 305 306 306 307 307 307 308 308 309 310 312 313 314 315 316 316 315 316 316 316 316 315 315 315 315 315 315 310 302 295 292 290 287 283 284 288 285 274 263 254
305 306 306 306 307 307 307 308 308 309 310 312 313 315 316 316 316 316 316 316 317 317 316 316 316 316 316 316 314 307 298 294 293 291 287 284 287 289 282 269 260 253
306 306 306 307 307 307 308 308 309 309 311 313 315 316 317 317 317 317 317 317 317 318 317 317 317 317 316 316 312 303 296 295 294 290 286 287 290 289 278 267 261 253
306 306 306 307 307 308 308 309 309 311 313 314 316 318 318 318 318 318 318 318 318 318 318 318 318 317 317 315 309 300 297 297 293 288 287 289 292 287 274 267 263 254
306 306 307 307 308 308 309 309 310 312 314 316 317 319 319 318 318 318 318 318 319 319 319 319 318 317 317 314 306 299 299 297 291 288 289 292 292 284 273 268 265 255
306 307 307 308 308 309 309 310 312 314 315 317 318 319 319 318 318 318 319 319 320 320 320 319 318 317 316 312 304 300 300 296 291 291 293 295 292 282 273 270 265 255
306 307 308 308 309 309 309 310 313 315 316 317 318 319 319 318 319 319 319 320 321 321 320 319 318 317 315 310 303 302 300 295 293 294 296 296 290 281 275 271 263 251
307 307 308 309 309 309 310 311 314 315 317 318 318 319 319 319 319 319 320 321 322 321 320 319 318 317 314 308 305 304 300 296 295 297 299 297 289 282 277 269 258 244
307 308 309 309 309 309 311 313 315 316 317 318 318 319 319 319 320 320 321 322 323 321 320 319 318 316 312 308 307 305 300 298 298 300 301 297 289 284 276 264 250 233
308 309 309 309 309 310 311 314 315 316 317 318 319 319 320 320 320 321 323 324 323 321 320 319 317 313 310 309 307 304 300 299 301 303 303 297 291 285 272 254 237 220
309 309 309 309 309 310 313 315 316 316 317 318 319 320 320 320 321 323 324 324 322 321 320 318 315 311 310 309 306 302 300 301 304 306 304 298 292 282 262 240 221 207
309 310 310 310 310 311 314 315 316 317 318 319 320 320 320 322 323 324 325 323 322 321 320 318 312 309 310 309 304 302 302 304 307 308 304 299 292 273 246 222 206 198
310 310 310 309 310 312 315 316 316 317 318 319 320 320 321 323 324 325 325 323 322 321 320 316 311 309 310 307 303 303 304 307 310 309 304 299 286 256 224 206 197 195
310 310 309 309 310 313 315 316 317 317 319 320 320 321 322 324 326 326 324 323 322 321 319 314 310 310 311 307 304 305 307 309 311 309 304 295 272 233 208 197 194 196
310 309 309 309 311 314 316 317 317 318 319 320 320 322 324 326 327 326 325 324 323 321 318 314 312 312 311 307 305 307 308 310 310 308 303 287 248 214 199 194 194 197
309 308 308 309 312 314 316 317 317 318 319 320 321 324 325 327 328 326 325 324 324 321 318 315 315 314 311 308 308 309 309 310 310 307 300 270 224 204 196 194 196 200
308 307 308 310 312 314 316 317 318 318 319 320 323 325 327 328 328 326 325 325 323 321 318 316 317 316 313 311 311 311 311 311 310 307 293 245 210 200 196 196 199 204
307 307 308 310 313 315 316 317 318 319 320 322 324 326 328 329 329 327 326 324 322 320 319 318 318 317 314 313 313 312 312 312 310 305 279 224 204 199 197 199 202 207
306 307 308 310 313 315 316 318 318 319 320 323 326 327 329 330 329 328 327 324 320 319 321 320 319 317 315 314 313 313 313 312 311 302 257 212 202 199 199 201 203 207
305 307 309 311 313 315 317 318 319 320 322 325 327 328 330 331 330 329 328 323 318 318 321 322 320 318 316 315 314 315 314 312 310 295 237 206 202 202 203 205 204 203
Height
5588 5584 5579 5575 5569 5563 5557 5550 5544 5539 5533 5527 5522 5518 5514 5510 5504 5496 5489 5482 5474 5466 5458 5449 5441 5432 5425 5417 5407 5400 5393 5385 5377 5370 5366 5366 5366 5366 5367 5366 5364 5362
5579 5575 5570 5565 5559 5552 5545 5538 5532 5527 5523 5517 5511 5506 5502 5498 5493 5485 5478 5471 5465 5457 5448 5438 5429 5420 5411 5403 5394 5386 5379 5371 5364 5359 5356 5357 5357 5357 5357 5356 5353 5352
5570 5565 5560 5554 5548 5542 5534 5528 5522 5516 5512 5507 5501 5495 5491 5486 5481 5475 5467 5459 5453 5446 5437 5427 5418 5409 5399 5390 5381 5373 5365 5358 5353 5349 5347 5349 5348 5347 5347 5345 5343 5343
5561 5556 5551 5544 5538 5531 5524 5518 5512 5506 5501 5496 5491 5485 5480 5475 5469 5463 5457 5449 5441 5434 5425 5415 5406 5397 5388 5379 5369 5361 5352 5346 5342 5339 5339 5340 5339 5338 5338 5335 5333 5334
5553 5546 5541 5535 5528 5521 5514 5508 5503 5497 5491 5486 5481 5475 5469 5464 5458 5451 5445 5438 5430 5421 5413 5404 5394 5385 5376 5367 5358 5349 5341 5335 5332 5330 5330 5331 5330 5329 5328 5325 5324 5325
5544 5538 5531 5525 5518 5511 5504 5498 5493 5487 5482 5477 5471 5465 5459 5453 5446 5439 5433 5427 5419 5409 5401 5392 5383 5374 5364 5355 5346 5337 5330 5326 5324 5321 5321 5322 5321 5320 5318 5316 5315 5316
5534 5528 5522 5515 5508 5501 5495 5489 5483 5477 5472 5467 5462 5455 5448 5442 5436 5429 5421 5415 5408 5399 5390 5381 5371 5362 5352 5343 5334 5326 5320 5316 5315 5313 5313 5313 5313 5312 5309 5306 5307 5308
5525 5519 5513 5506 5499 5492 5485 5479 5473 5468 5462 5457 5452 5445 5438 5431 5425 5418 5411 5403 5396 5387 5378 5369 5360 5350 5340 5331 5322 5316 5311 5308 5306 5305 5304 5304 5304 5303 5300 5298 5299 5301
5516 5510 5504 5497 5490 5483 5476 5470 5464 5458 5452 5447 5441 5435 5428 5420 5413 5407 5400 5392 5384 5376 5366 5357 5348 5338 5328 5319 5311 5306 5303 5301 5298 5297 5296 5295 5295 5294 5292 5290 5291 5294
5507 5502 5495 5488 5482 5475 5468 5461 5455 5449 5442 5436 5430 5424 5417 5410 5403 5395 5388 5380 5372 5365 5355 5345 5335 5327 5317 5308 5301 5296 5295 5293 5291 5289 5288 5287 5286 5285 5284 5283 5284 5286
5499 5493 5487 5480 5473 5467 5460 5452 5446 5440 5433 5426 5420 5415 5408 5400 5393 5386 5378 5370 5362 5353 5344 5334 5324 5314 5306 5298 5292 5288 5287 5285 5283 5281 5279 5278 5277 5275 5275 5275 5275 5277
5491 5485 5479 5472 5466 5459 5452 5445 5438 5432 5425 5418 5411 5406 5399 5392 5384 5377 5368 5360 5352 5342 5333 5323 5313 5303 5294 5288 5284 5280 5279 5277 5275 5273 5271 5269 5267 5266 5266 5266 5266 5268
5483 5477 5471 5465 5458 5451 5444 5438 5431 5425 5418 5411 5405 5398 5391 5383 5376 5368 5358 5349 5340 5331 5321 5311 5302 5292 5284 5279 5276 5273 5271 5269 5267 5265 5263 5260 5258 5257 5257 5256 5256 5258
5475 5469 5463 5457 5451 5444 5437 5430 5424 5418 5411 5405 5398 5391 5383 5375 5366 5358 5349 5340 5330 5319 5310 5300 5290 5282 5275 5271 5269 5266 5263 5262 5260 5257 5254 5252 5249 5248 5247 5246 5246 5249
5467 5461 5456 5450 5443 5437 5430 5423 5417 5411 5405 5399 5391 5384 5376 5367 5358 5348 5338 5330 5320 5308 5298 5289 5279 5272 5267 5263 5261 5259 5256 5254 5252 5249 5246 5243 5241 5238 5236 5236 5237 5241
5460 5454 5448 5442 5436 5430 5423 5417 5410 5404 5398 5392 5385 5377 5368 5359 5350 5339 5328 5319 5309 5299 5289 5279 5270 5263 5259 5256 5253 5251 5250 5248 5245 5242 5238 5235 5232 5229 5227 5227 5230 5234
5452 5446 5440 5434 5429 5423 5416 5410 5403 5397 5391 5385 5378 5369 5361 5351 5341 5331 5320 5309 5300 5290 5280 5271 5262 5256 5253 5250 5247 5244 5243 5241 5239 5235 5231 5227 5224 5221 5219 5221 5224 5229
5444 5438 5432 5427 5421 5416 5410 5403 5396 5390 5384 5378 5370 5362 5353 5344 5333 5322 5311 5301 5290 5280 5271 5263 5256 5251 5248 5245 5241 5238 5236 5235 5232 5229 5225 5221 5217 5215 5214 5216 5221 5227
5436 5431 5425 5420 5415 5409 5403 5396 5389 5383 5376 5370 5363 5355 5346 5336 5325 5314 5303 5292 5282 5272 5264 5257 5250 5245 5243 5239 5235 5233 5230 5228 5226 5223 5219 5215 5212 5211 5212 5215 5220 5226
5428 5423 5418 5413 5408 5402 5395 5389 5382 5376 5369 5362 5355 5347 5338 5329 5318 5307 5296 5284 5273 5264 5257 5251 5245 5240 5238 5234 5231 5228 5226 5223 5221 5217 5214 5211 5209 5209 5211 5214 5219 5225
5421 5416 5411 5406 5401 5395 5388 5382 5375 5368 5362 5356 5348 5339 5329 5320 5310 5298 5287 5276 5265 5256 5251 5246 5240 5235 5233 5230 5227 5224 5222 5219 5216 5213 5210 5207 5206 5208 5211 5214 5219 5225
5413 5409 5404 5399 5394 5388 5382 5375 5368 5361 5355 5349 5342 5332 5321 5311 5301 5288 5277 5267 5258 5250 5246 5242 5236 5231 5229 5226 5223 5221 5218 5215 5212 5209 5206 5205 5205 5208 5211 5215 5220 5225
5406 5401 5397 5392 5387 5381 5375 5369 5362 5354 5348 5342 5334 5325 5314 5304 5294 5281 5268 5258 5250 5245 5241 5238 5233 5228 5225 5223 5220 5218 5215 5212 5209 5206 5203 5203 5205 5208 5211 5215 5220 5224
5398 5394 5390 5385 5379 5374 5368 5363 5356 5348 5341 5334 5326 5317 5307 5297 5286 5275 5262 5251 5243 5240 5237 5233 5229 5225 5222 5220 5217 5214 5212 5209 5206 5203 5201 5202 5205 5208 5212 5215 5219 5223
5391 5386 5382 5378 5373 5367 5361 5355 5349 5342 5335 5328 5318 5309 5300 5290 5279 5268 5257 5246 5238 5235 5233 5229 5226 5222 5219 5217 5215 5212 5209 5206 5203 5201 5200 5201 5205 5208 5212 5215 5218 5221
5384 5379 5374 5370 5366 5360 5354 5348 5342 5335 5328 5321 5313 5302 5292 5283 5272 5261 5252 5243 5235 5231 5229 5226 5222 5220 5217 5214 5212 5210 5206 5204 5202 5200 5199 5201 5205 5209 5212 5215 5218 5220